Tracking 19246 objects as of 21-Sep-2018
HD Live streaming from Space Station
objects crossing your sky now

FENGYUN 1C DEB

Track FENGYUN 1C DEB now!
10-day predictions


NORAD ID: 30684
Int'l Code: 1999-025AQS
Perigee: 854.7 km
Apogee: 1,213.2 km
Inclination: 99.7 °
Period: 105.7 minutes
Semi major axis: 7404 km
RCS: 0.036 m2 (small)
Launch date: May 10, 1999
Source: People's Republic of China (PRC)
Launch site: Taiyaun Space Center, China (TSC)

Note: This is SATELLITE DEBRIS
aabbcc
Your satellite tracking list
Your tracking list is empty




NASA's NSSDC Master Catalog

Two Line Element Set (TLE):
1 30684U 99025AQS 18262.03419264  .00000301  00000-0  36530-3 0  9998
2 30684  99.7363 291.2657 0242100 167.6799 223.6790 13.62450017577205
Source of the keplerian elements: AFSPC